AT170 Weather Reports


time (UTC)temp
C
wind
direction
speed
KPH
gust
KPH
rain 1hr
cm
rain 24hr
cm
rain mn
cm
humidity
%
barometer
mb
20260508050005 8 157 0.0 0.0 0.00 0.86 0.00 88 1010.1
20260508043005 8 157 0.0 0.0 0.00 0.86 0.00 88 1010.0
20260508040006 8 157 0.0 1.6 0.00 0.86 0.00 89 1009.7
20260508030005 8 157 0.0 0.0 0.00 0.86 0.00 89 1009.9
20260508023005 8 157 0.0 3.2 0.00 0.86 0.00 89 1009.7
20260508020006 8 157 0.0 0.0 0.00 0.86 0.00 89 1009.8
20260508013005 8 157 0.0 0.0 0.00 0.86 0.00 89 1010.2
20260508010005 8 157 0.0 0.0 0.00 0.86 0.00 89 1010.4
20260508003005 8 157 0.0 0.0 0.00 0.86 0.00 89 1010.6
20260507233004 9 157 0.0 0.0 0.00 0.86 0.00 88 1011.2
20260507230007 10 157 0.0 0.0 0.00 0.86 0.00 88 1011.4
20260507223004 10 157 0.0 0.0 0.00 0.86 0.00 88 1011.5
20260507220005 10 157 0.0 0.0 0.00 0.86 0.00 86 1011.4
20260507203005 11 157 0.0 0.0 0.00 0.86 0.86 81 1010.6
20260507200005 12 157 0.0 0.0 0.00 0.86 0.86 79 1010.0
20260507193005 12 157 0.0 0.0 0.00 0.86 0.86 76 1009.5
20260507180005 13 158 0.0 3.2 0.00 0.86 0.86 76 1008.7
20260507170005 13 167 0.0 3.2 0.00 0.86 0.86 84 1008.8
20260507153005 11 167 0.0 4.8 0.05 0.86 0.86 88 1008.0
20260507150006 11 165 0.0 4.8 0.30 0.84 0.84 88 1008.5
20260507143004 11 165 0.0 8.0 0.43 0.81 0.81 87 1008.8
20260507130004 16 170 0.0 19.3 0.00 0.00 0.00 63 1007.9
20260507123004 17 15 1.6 8.0 0.00 0.00 0.00 58 1007.9
20260507120006 18 15 0.0 9.7 0.00 0.00 0.00 56 1007.8
20260507113006 18 15 1.6 11.3 0.00 0.00 0.00 58 1008.4
20260507110006 17 13 0.0 8.0 0.00 0.00 0.00 61 1009.0
20260507103005 17 13 0.0 8.0 0.00 0.00 0.00 63 1009.4
20260507100005 16 13 0.0 8.0 0.00 0.00 0.00 65 1009.6
20260507090005 13 11 0.0 4.8 0.00 0.00 0.00 72 1009.6
20260507083005 13 10 0.0 4.8 0.00 0.00 0.00 73 1009.5
20260507080005 12 9 0.0 0.0 0.00 0.00 0.00 74 1009.6
20260507073005 12 9 0.0 3.2 0.00 0.00 0.00 75 1009.6
20260507070009 12 9 0.0 0.0 0.00 0.00 0.00 75 1009.6
20260507063004 11 9 0.0 3.2 0.00 0.00 0.00 75 1009.3
20260507060004 11 9 0.0 3.2 0.00 0.00 0.00 75 1009.2